Helicity
224 247 257 231 226 214 196 191 213 220 205 215 197 195 203 189 184 220 231 222 210 222
279 271 248 254 267 269 221 166 181 226 243 246 243 239 243 213 187 209 243 225 234 249
296 310 309 304 284 266 257 246 225 227 230 234 229 241 266 234 229 225 230 241 235 254
276 294 294 303 265 254 247 243 250 276 257 248 243 233 252 253 267 265 271 278 288 287
265 284 291 279 256 241 239 270 267 271 277 271 265 257 264 263 286 280 281 311 318 333
258 270 279 265 225 268 259 254 272 276 303 318 318 294 268 277 284 292 307 330 343 352
235 257 276 264 249 263 274 277 297 311 305 318 338 317 302 308 278 270 265 338 328 346
208 240 251 241 234 243 251 282 303 293 268 302 324 349 331 320 284 301 283 331 310 352
236 281 286 269 233 238 254 293 309 276 258 282 313 319 366 331 304 330 364 388 386 411
195 202 226 241 240 246 269 288 279 273 241 237 260 305 343 365 342 365 376 420 488 507
144 131 142 186 232 241 253 304 306 265 260 237 256 318 346 406 377 371 376 409 418 451
256 162 150 163 186 208 251 245 220 234 234 232 272 335 376 382 388 418 375 360 365 409
289 388 200 219 222 213 256 227 253 258 241 259 334 355 354 348 422 406 395 367 343 337
388 404 423 289 313 312 282 306 321 357 375 349 359 347 363 462 416 407 436 427 418 405
Wind_Speed
51 47 45 42 37 35 33 36 36 40 41 41 40 39 38 37 37 36 35 34 31 27
57 55 51 47 45 42 40 36 33 34 38 39 40 40 40 40 39 38 38 37 35 33
54 53 55 55 53 48 46 44 40 38 36 36 37 37 39 40 40 41 40 39 38 37
65 62 58 63 57 50 48 47 47 46 43 40 38 37 37 38 40 43 43 42 42 42
67 66 66 73 64 58 54 53 53 50 49 46 44 41 41 39 37 39 42 43 44 46
74 70 67 68 63 61 61 61 65 60 56 53 51 49 47 44 42 40 42 42 42 43
78 76 74 71 66 63 58 59 66 64 61 60 61 60 55 50 47 45 43 43 42 43
80 78 75 72 71 73 70 64 60 65 62 62 62 60 59 57 51 49 47 44 42 41
80 78 78 75 74 73 72 66 63 65 64 65 65 61 58 56 56 52 47 44 41 39
84 82 81 78 75 74 69 66 66 63 64 66 67 62 59 53 53 51 47 42 38 35
86 88 82 79 79 77 71 69 66 67 66 67 67 61 55 51 51 48 44 40 35 32
80 87 85 83 82 75 72 70 64 62 65 66 65 56 51 47 48 46 42 38 35 30
70 79 85 83 79 75 72 70 65 62 60 58 60 53 48 46 44 43 41 40 38 34
62 66 77 81 78 73 71 67 66 62 58 56 53 49 44 42 41 42 41 40 38 33
Wind_Direction
225 233 229 230 232 226 226 220 233 220 221 225 232 235 238 239 236 232 231 230 234 247
239 238 236 232 235 239 239 242 237 232 223 225 228 233 236 236 236 239 236 233 238 243
233 228 238 245 244 236 236 241 240 237 233 231 230 234 236 240 241 240 244 244 243 245
248 245 245 248 243 239 243 243 240 235 236 235 235 236 238 242 243 239 245 247 247 248
249 250 249 251 248 248 244 246 244 246 244 243 241 238 238 242 246 246 247 249 252 252
250 250 249 249 247 250 248 249 253 252 248 246 244 245 246 247 250 251 253 254 253 255
250 250 251 252 250 250 250 251 253 250 250 253 254 255 254 251 254 259 261 262 259 258
252 253 252 252 251 253 254 254 254 254 252 254 255 255 253 256 256 260 264 268 266 265
253 253 253 253 252 254 255 256 256 253 251 254 257 254 252 255 257 259 262 266 272 275
255 253 253 253 254 255 256 258 257 256 252 254 257 256 251 249 256 257 260 263 266 273
256 255 255 254 254 257 257 258 260 258 255 256 257 255 247 246 256 257 258 258 260 264
262 257 256 255 255 256 257 257 259 258 256 256 258 254 247 243 253 255 255 256 257 256
270 264 257 256 255 255 256 256 256 257 255 254 257 251 240 238 250 252 255 261 261 253
280 275 267 257 254 253 253 254 252 253 255 254 253 250 237 234 245 251 255 256 259 255